This is the latest recevied weather packets stored in our database for station/object SV7RNH. If no packets are shown the sender has not sent any weather packets the latest 10 day(s).
| Time | Temp. | Humidity | Pressure | Rain* | Wind** | Luminosity | Snow |
|---|---|---|---|---|---|---|---|
| 1777619703 | 12.78° C | 46% | 1023.6 hPa | 0 mm | - | - | - |
| 1777619403 | 13.33° C | 45% | 1023.6 hPa | 0 mm | - | - | - |
| 1777619104 | 12.78° C | 46% | 1023.6 hPa | 0 mm | - | - | - |
| 1777618803 | 12.78° C | 46% | 1023.6 hPa | 0 mm | - | - | - |
| 1777618504 | 12.78° C | 45% | 1023.5 hPa | 0 mm | - | - | - |
| 1777618203 | 12.22° C | 45% | 1023.7 hPa | 0 mm | - | - | - |
| 1777617903 | 12.78° C | 46% | 1023.6 hPa | 0 mm | - | - | - |
| 1777617604 | 12.22° C | 47% | 1023.6 hPa | 0 mm | - | - | - |
| 1777617303 | 12.22° C | 47% | 1023.5 hPa | 0 mm | - | - | - |
| 1777617004 | 12.22° C | 47% | 1023.3 hPa | 0 mm | - | - | - |
| 1777616703 | 12.22° C | 47% | 1023.4 hPa | 0 mm | - | - | - |
| 1777616404 | 11.67° C | 47% | 1023.3 hPa | 0 mm | - | - | - |
| 1777616104 | 11.67° C | 48% | 1023.2 hPa | 0 mm | - | - | - |
| 1777615803 | 11.67° C | 48% | 1023.2 hPa | 0 mm | - | - | - |
| 1777615504 | 11.67° C | 48% | 1023.1 hPa | 0 mm | - | - | - |
| 1777615204 | 11.11° C | 51% | 1023 hPa | 0 mm | - | - | - |
| 1777614904 | 11.11° C | 51% | 1023 hPa | 0 mm | - | - | - |
| 1777614603 | 11.11° C | 50% | 1023 hPa | 0 mm | - | - | - |
| 1777614304 | 11.11° C | 51% | 1023.1 hPa | 0 mm | - | - | - |
| 1777614003 | 11.11° C | 51% | 1023 hPa | 0 mm | - | - | - |
| 1777613704 | 11.11° C | 51% | 1023 hPa | 0 mm | - | - | - |
| 1777613403 | 11.11° C | 51% | 1022.9 hPa | 0 mm | - | - | - |
| 1777613104 | 10.56° C | 51% | 1023 hPa | 0 mm | - | - | - |
| 1777612803 | 10.56° C | 51% | 1023 hPa | 0 mm | - | - | - |
| 1777612504 | 10.56° C | 51% | 1022.9 hPa | 0 mm | - | - | - |
* Rain latest hour (hover to see other rain measurements)
** Current wind speed in m/s (hover to see current wind gust speed)